Time,TemperatureF,DewpointF,PressureIn,WindDirection,WindDirectionDegrees,WindSpeedMPH,WindSpeedGustMPH,Humidity,HourlyPrecipIn,Conditions,Clouds,dailyrainin,SoftwareType,DateUTC
2013-02-08 00:00:00,69.0,66.3,29.97,SSW,205,2.0,8.0,91,0.00,CLR,,0.00,WeatherDisplay:10.37,2013-02-08 05:00:00,
2013-02-08 00:10:00,68.9,66.2,29.95,SSW,201,2.0,8.0,91,0.00,CLR,,0.00,WeatherDisplay:10.37,2013-02-08 05:10:00,
2013-02-08 00:20:00,68.9,66.2,29.93,South,183,3.0,8.0,91,0.00,CLR,,0.00,WeatherDisplay:10.37,2013-02-08 05:20:00,
2013-02-08 00:30:00,68.9,66.2,29.93,SW,220,5.0,9.0,91,0.00,CLR,,0.00,WeatherDisplay:10.37,2013-02-08 05:30:00,
2013-02-08 00:40:00,68.9,66.2,29.93,SSW,212,2.0,10.0,91,0.00,CLR,,0.00,WeatherDisplay:10.37,2013-02-08 05:40:00,
2013-02-08 00:50:00,69.0,66.3,29.92,SSW,207,2.0,10.0,91,0.00,CLR,,0.00,WeatherDisplay:10.37,2013-02-08 05:50:00,
2013-02-08 01:00:00,69.1,66.4,29.91,SSW,207,6.0,12.0,91,0.00,CLR,,0.00,WeatherDisplay:10.37,2013-02-08 06:00:00,
2013-02-08 01:10:00,69.3,66.6,29.90,South,189,7.0,14.0,91,0.00,CLR,,0.00,WeatherDisplay:10.37,2013-02-08 06:10:00,
2013-02-08 01:20:00,69.5,66.4,29.93,WSW,243,7.0,15.0,90,0.00,CLR,,0.00,WeatherDisplay:10.37,2013-02-08 06:20:00,
2013-02-08 01:30:00,69.6,66.5,29.92,SW,227,3.0,14.0,90,0.01,RA,,0.01,WeatherDisplay:10.37,2013-02-08 06:30:00,
2013-02-08 01:40:00,69.6,66.5,29.90,South,177,3.0,12.0,90,0.00,RA,,0.01,WeatherDisplay:10.37,2013-02-08 06:40:00,
2013-02-08 01:50:00,69.5,66.4,29.92,SW,236,6.0,16.0,90,0.00,RA,,0.01,WeatherDisplay:10.37,2013-02-08 06:50:00,
2013-02-08 02:00:00,69.5,66.4,29.91,SW,236,2.0,16.0,90,0.00,RA,,0.01,WeatherDisplay:10.37,2013-02-08 07:00:00,
2013-02-08 02:10:00,69.6,66.5,29.90,SSW,211,6.0,13.0,90,0.00,RA,,0.01,WeatherDisplay:10.37,2013-02-08 07:10:00,
2013-02-08 02:20:00,69.6,66.5,29.91,NNW,330,1.0,9.0,90,0.00,RA,,0.01,WeatherDisplay:10.37,2013-02-08 07:20:00,
2013-02-08 02:30:00,69.5,66.8,29.90,NNW,339,2.0,6.0,91,0.00,RA,,0.01,WeatherDisplay:10.37,2013-02-08 07:30:00,
2013-02-08 02:40:00,69.5,66.8,29.90,WSW,244,1.0,7.0,91,0.01,RA,,0.02,WeatherDisplay:10.37,2013-02-08 07:40:00,
2013-02-08 02:50:00,69.4,66.7,29.93,WNW,289,3.0,9.0,91,0.00,RA,,0.02,WeatherDisplay:10.37,2013-02-08 07:50:00,
2013-02-08 03:00:00,69.3,66.6,29.92,West,259,3.0,8.0,91,0.00,RA,,0.02,WeatherDisplay:10.37,2013-02-08 08:00:00,
2013-02-08 03:10:00,69.2,66.5,29.92,WSW,242,6.0,8.0,91,0.00,RA,,0.02,WeatherDisplay:10.37,2013-02-08 08:10:00,
2013-02-08 03:20:00,69.2,66.8,29.92,WSW,239,3.0,10.0,92,0.00,RA,,0.02,WeatherDisplay:10.37,2013-02-08 08:20:00,
2013-02-08 03:30:00,69.1,66.7,29.92,SW,227,1.0,8.0,92,0.00,RA,,0.02,WeatherDisplay:10.37,2013-02-08 08:30:00,
2013-02-08 03:40:00,69.1,66.7,29.92,SW,218,2.0,7.0,92,0.00,RA,,0.02,WeatherDisplay:10.37,2013-02-08 08:40:00,
2013-02-08 03:50:00,69.2,66.8,29.91,SW,215,2.0,8.0,92,0.00,RA,,0.02,WeatherDisplay:10.37,2013-02-08 08:50:00,
2013-02-08 04:00:00,69.4,66.9,29.91,SW,220,5.0,12.0,92,0.00,RA,,0.02,WeatherDisplay:10.37,2013-02-08 09:00:00,
2013-02-08 04:10:00,69.4,67.0,29.90,SW,217,2.0,12.0,92,0.00,RA,,0.02,WeatherDisplay:10.37,2013-02-08 09:10:00,
2013-02-08 04:20:00,69.5,67.1,29.90,SSW,212,1.0,8.0,92,0.00,RA,,0.02,WeatherDisplay:10.37,2013-02-08 09:20:00,
2013-02-08 04:30:00,69.5,67.1,29.90,SSW,198,5.0,9.0,92,0.00,RA,,0.02,WeatherDisplay:10.37,2013-02-08 09:30:00,
2013-02-08 04:40:00,69.5,67.1,29.91,SW,216,3.0,12.0,92,0.00,RA,,0.02,WeatherDisplay:10.37,2013-02-08 09:40:00,
2013-02-08 04:50:00,69.5,67.4,29.91,SW,215,3.0,10.0,93,0.00,RA,,0.02,WeatherDisplay:10.37,2013-02-08 09:50:00,
2013-02-08 05:00:00,69.5,67.4,29.91,SW,217,2.0,12.0,93,0.00,RA,,0.02,WeatherDisplay:10.37,2013-02-08 10:00:00,
2013-02-08 05:10:00,69.4,67.3,29.91,SSW,201,3.0,12.0,93,0.00,RA,,0.02,WeatherDisplay:10.37,2013-02-08 10:10:00,
2013-02-08 05:20:00,69.4,67.3,29.91,SW,215,3.0,10.0,93,0.00,RA,,0.02,WeatherDisplay:10.37,2013-02-08 10:20:00,
2013-02-08 05:30:00,69.5,67.4,29.91,SW,214,5.0,12.0,93,0.00,RA,,0.02,WeatherDisplay:10.37,2013-02-08 10:30:00,
2013-02-08 05:40:00,69.5,67.4,29.92,SW,225,3.0,12.0,93,0.00,RA,,0.02,WeatherDisplay:10.37,2013-02-08 10:40:00,
2013-02-08 05:50:00,69.5,67.7,29.92,SW,236,5.0,12.0,94,0.00,RA,,0.02,WeatherDisplay:10.37,2013-02-08 10:50:00,
2013-02-08 06:00:00,69.5,67.7,29.93,SW,224,5.0,12.0,94,0.00,RA,,0.02,WeatherDisplay:10.37,2013-02-08 11:00:00,
2013-02-08 06:10:00,69.7,67.9,29.93,SW,235,5.0,10.0,94,0.00,RA,,0.02,WeatherDisplay:10.37,2013-02-08 11:10:00,
2013-02-08 06:20:00,69.8,68.0,29.93,SW,222,3.0,10.0,94,0.00,RA,,0.02,WeatherDisplay:10.37,2013-02-08 11:20:00,
2013-02-08 06:30:00,69.8,68.0,29.94,SSW,211,3.0,9.0,94,0.00,RA,,0.02,WeatherDisplay:10.37,2013-02-08 11:30:00,
2013-02-08 06:40:00,69.7,67.9,29.94,SW,229,3.0,9.0,94,0.00,RA,,0.02,WeatherDisplay:10.37,2013-02-08 11:40:00,
2013-02-08 06:50:00,69.6,68.1,29.95,WSW,242,5.0,9.0,95,0.00,RA,,0.02,WeatherDisplay:10.37,2013-02-08 11:50:00,
2013-02-08 07:00:00,69.5,68.0,29.94,WSW,243,2.0,8.0,95,0.00,RA,,0.02,WeatherDisplay:10.37,2013-02-08 12:00:00,
2013-02-08 07:10:00,69.4,67.9,29.95,WSW,254,3.0,7.0,95,0.00,RA,,0.02,WeatherDisplay:10.37,2013-02-08 12:10:00,
2013-02-08 07:20:00,69.4,67.9,29.95,WSW,243,5.0,8.0,95,0.00,RA,,0.02,WeatherDisplay:10.37,2013-02-08 12:20:00,
2013-02-08 07:30:00,69.4,67.9,29.95,WSW,256,5.0,7.0,95,0.00,RA,,0.02,WeatherDisplay:10.37,2013-02-08 12:30:00,
2013-02-08 07:40:00,69.6,68.4,29.96,WSW,251,3.0,8.0,96,0.00,RA,,0.02,WeatherDisplay:10.37,2013-02-08 12:40:00,
2013-02-08 07:50:00,69.8,68.6,29.96,WSW,248,3.0,7.0,96,0.00,RA,,0.02,WeatherDisplay:10.37,2013-02-08 12:50:00,
2013-02-08 08:00:00,69.8,68.6,29.97,WSW,258,6.0,8.0,96,0.00,RA,,0.02,WeatherDisplay:10.37,2013-02-08 13:00:00,
2013-02-08 08:10:00,69.9,68.7,29.98,West,261,7.0,12.0,96,0.00,RA,,0.02,WeatherDisplay:10.37,2013-02-08 13:10:00,
2013-02-08 08:20:00,70.2,69.0,29.98,WSW,251,7.0,10.0,96,0.00,RA,,0.02,WeatherDisplay:10.37,2013-02-08 13:20:00,
2013-02-08 08:30:00,70.3,69.1,29.99,West,276,6.0,10.0,96,0.00,RA,,0.02,WeatherDisplay:10.37,2013-02-08 13:30:00,
2013-02-08 08:40:00,70.1,68.6,29.99,West,277,6.0,9.0,95,0.00,RA,,0.02,WeatherDisplay:10.37,2013-02-08 13:40:00,
2013-02-08 08:50:00,70.2,68.7,30.00,WNW,284,7.0,12.0,95,0.00,RA,,0.02,WeatherDisplay:10.37,2013-02-08 13:50:00,
2013-02-08 09:00:00,70.5,68.7,30.00,WNW,287,5.0,10.0,94,0.00,RA,,0.02,WeatherDisplay:10.37,2013-02-08 14:00:00,
2013-02-08 09:10:00,70.7,68.2,30.01,West,277,6.0,9.0,92,0.00,RA,,0.02,WeatherDisplay:10.37,2013-02-08 14:10:00,
2013-02-08 09:20:00,71.1,68.7,30.01,WNW,295,5.0,7.0,92,0.00,RA,,0.02,WeatherDisplay:10.37,2013-02-08 14:20:00,
2013-02-08 09:30:00,71.6,68.8,30.01,WNW,293,5.0,7.0,91,0.00,RA,,0.02,WeatherDisplay:10.37,2013-02-08 14:30:00,
2013-02-08 09:40:00,71.7,68.6,30.01,WNW,283,7.0,12.0,90,0.00,RA,,0.02,WeatherDisplay:10.37,2013-02-08 14:40:00,
2013-02-08 09:50:00,71.6,68.5,30.01,WNW,289,6.0,10.0,90,0.00,RA,,0.02,WeatherDisplay:10.37,2013-02-08 14:50:00,
2013-02-08 10:00:00,71.9,68.9,30.01,WNW,295,7.0,9.0,90,0.00,RA,,0.02,WeatherDisplay:10.37,2013-02-08 15:00:00,
2013-02-08 10:10:00,72.2,68.8,30.02,West,276,6.0,12.0,89,0.00,RA,,0.02,WeatherDisplay:10.37,2013-02-08 15:10:00,
2013-02-08 10:20:00,72.6,68.8,30.02,WNW,296,7.0,12.0,88,0.00,RA,,0.02,WeatherDisplay:10.37,2013-02-08 15:20:00,
2013-02-08 10:30:00,72.4,68.3,30.02,WNW,287,7.0,12.0,87,0.00,RA,,0.02,WeatherDisplay:10.37,2013-02-08 15:30:00,
2013-02-08 10:40:00,72.5,68.1,30.02,WNW,301,5.0,9.0,86,0.00,RA,,0.02,WeatherDisplay:10.37,2013-02-08 15:40:00,
2013-02-08 10:50:00,72.8,68.4,30.02,West,281,6.0,12.0,86,0.00,RA,,0.02,WeatherDisplay:10.37,2013-02-08 15:50:00,
2013-02-08 11:00:00,72.6,68.2,30.02,WNW,291,6.0,10.0,86,0.00,RA,,0.02,WeatherDisplay:10.37,2013-02-08 16:00:00,
2013-02-08 11:10:00,73.0,68.2,30.02,WNW,293,5.0,9.0,85,0.00,RA,,0.02,WeatherDisplay:10.37,2013-02-08 16:10:00,
2013-02-08 11:20:00,74.1,68.3,30.02,WNW,298,5.0,9.0,82,0.00,RA,,0.02,WeatherDisplay:10.37,2013-02-08 16:20:00,
2013-02-08 11:30:00,73.6,68.2,30.02,WNW,290,7.0,12.0,83,0.00,RA,,0.02,WeatherDisplay:10.37,2013-02-08 16:30:00,
2013-02-08 11:40:00,73.3,67.8,30.02,West,281,7.0,10.0,83,0.00,RA,,0.02,WeatherDisplay:10.37,2013-02-08 16:40:00,
2013-02-08 11:50:00,73.5,68.4,30.01,West,281,7.0,12.0,84,0.00,RA,,0.02,WeatherDisplay:10.37,2013-02-08 16:50:00,
2013-02-08 12:00:00,72.7,68.0,30.01,West,281,8.0,12.0,85,0.00,RA,,0.02,WeatherDisplay:10.37,2013-02-08 17:00:00,
2013-02-08 12:10:00,73.3,67.9,30.01,West,280,6.0,12.0,83,0.00,RA,,0.02,WeatherDisplay:10.37,2013-02-08 17:10:00,
2013-02-08 12:20:00,73.1,67.3,30.01,West,272,7.0,10.0,82,0.00,RA,,0.02,WeatherDisplay:10.37,2013-02-08 17:20:00,
2013-02-08 12:30:00,73.3,67.1,30.01,West,265,7.0,12.0,81,0.00,RA,,0.02,WeatherDisplay:10.37,2013-02-08 17:30:00,
2013-02-08 12:40:00,73.0,66.5,30.00,West,269,8.0,12.0,80,0.00,RA,,0.02,WeatherDisplay:10.37,2013-02-08 17:40:00,
2013-02-08 12:50:00,73.2,65.5,30.01,West,266,10.0,12.0,77,0.00,RA,,0.02,WeatherDisplay:10.37,2013-02-08 17:50:00,
2013-02-08 13:00:00,73.6,65.6,30.00,West,281,7.0,12.0,76,0.00,RA,,0.02,WeatherDisplay:10.37,2013-02-08 18:00:00,
2013-02-08 13:10:00,73.8,66.1,30.00,West,279,9.0,12.0,77,0.00,RA,,0.02,WeatherDisplay:10.37,2013-02-08 18:10:00,
2013-02-08 13:20:00,74.2,66.1,30.00,West,268,7.0,12.0,76,0.00,RA,,0.02,WeatherDisplay:10.37,2013-02-08 18:20:00,
2013-02-08 13:30:00,74.0,65.2,30.00,West,273,8.0,12.0,74,0.00,RA,,0.02,WeatherDisplay:10.37,2013-02-08 18:30:00,
2013-02-08 13:40:00,73.7,65.3,29.99,West,265,8.0,12.0,75,0.00,RA,,0.02,WeatherDisplay:10.37,2013-02-08 18:40:00,
2013-02-08 13:50:00,73.9,65.1,29.99,West,277,7.0,12.0,74,0.00,RA,,0.02,WeatherDisplay:10.37,2013-02-08 18:50:00,
2013-02-08 14:00:00,74.1,65.7,29.99,West,271,7.0,12.0,75,0.00,RA,,0.02,WeatherDisplay:10.37,2013-02-08 19:00:00,
2013-02-08 14:10:00,75.0,64.5,29.98,West,271,8.0,12.0,70,0.00,RA,,0.02,WeatherDisplay:10.37,2013-02-08 19:10:00,
2013-02-08 14:20:00,75.4,63.7,29.98,West,278,8.0,10.0,67,0.00,RA,,0.02,WeatherDisplay:10.37,2013-02-08 19:20:00,
2013-02-08 14:30:00,74.8,62.3,29.98,WNW,298,6.0,12.0,65,0.00,RA,,0.02,WeatherDisplay:10.37,2013-02-08 19:30:00,
2013-02-08 14:40:00,75.0,62.4,29.97,West,279,8.0,12.0,65,0.00,RA,,0.02,WeatherDisplay:10.37,2013-02-08 19:40:00,
2013-02-08 14:50:00,74.8,62.3,29.97,West,280,8.0,12.0,65,0.00,RA,,0.02,WeatherDisplay:10.37,2013-02-08 19:50:00,
2013-02-08 15:00:00,75.3,62.3,29.98,West,273,9.0,12.0,64,0.00,RA,,0.02,WeatherDisplay:10.37,2013-02-08 20:00:00,
2013-02-08 15:10:00,75.1,63.0,29.97,WNW,283,7.0,12.0,66,0.00,RA,,0.02,WeatherDisplay:10.37,2013-02-08 20:10:00,
2013-02-08 15:20:00,74.9,62.8,29.97,WNW,285,8.0,12.0,66,0.00,RA,,0.02,WeatherDisplay:10.37,2013-02-08 20:20:00,
2013-02-08 15:30:00,75.1,63.8,29.98,West,276,10.0,12.0,68,0.00,RA,,0.02,WeatherDisplay:10.37,2013-02-08 20:30:00,
2013-02-08 15:40:00,74.5,63.6,29.98,West,277,8.0,13.0,69,0.00,RA,,0.02,WeatherDisplay:10.37,2013-02-08 20:40:00,
2013-02-08 15:50:00,74.2,63.4,29.98,WNW,287,9.0,14.0,69,0.00,RA,,0.02,WeatherDisplay:10.37,2013-02-08 20:50:00,
2013-02-08 16:00:00,74.0,61.9,29.98,WNW,290,9.0,14.0,66,0.00,RA,,0.02,WeatherDisplay:10.37,2013-02-08 21:00:00,
2013-02-08 16:10:00,73.2,62.8,29.98,WNW,286,8.0,13.0,70,0.00,RA,,0.02,WeatherDisplay:10.37,2013-02-08 21:10:00,
2013-02-08 16:20:00,72.8,63.2,29.98,WNW,282,8.0,13.0,72,0.00,RA,,0.02,WeatherDisplay:10.37,2013-02-08 21:20:00,
2013-02-08 16:30:00,72.0,62.9,29.98,WNW,283,9.0,15.0,73,0.00,RA,,0.02,WeatherDisplay:10.37,2013-02-08 21:30:00,
2013-02-08 16:40:00,71.7,63.4,29.98,West,277,8.0,14.0,75,0.00,RA,,0.02,WeatherDisplay:10.37,2013-02-08 21:40:00,
2013-02-08 16:50:00,71.4,63.0,29.98,West,281,8.0,12.0,75,0.00,RA,,0.02,WeatherDisplay:10.37,2013-02-08 21:50:00,
2013-02-08 17:00:00,71.4,63.4,29.98,WNW,286,7.0,14.0,76,0.00,RA,,0.02,WeatherDisplay:10.37,2013-02-08 22:00:00,
2013-02-08 17:10:00,71.1,63.1,29.98,West,277,8.0,13.0,76,0.00,RA,,0.02,WeatherDisplay:10.37,2013-02-08 22:10:00,
2013-02-08 17:20:00,70.8,63.2,29.98,WNW,282,8.0,12.0,77,0.00,RA,,0.02,WeatherDisplay:10.37,2013-02-08 22:20:00,
2013-02-08 17:30:00,70.6,61.9,29.98,WNW,291,8.0,16.0,74,0.00,RA,,0.02,WeatherDisplay:10.37,2013-02-08 22:30:00,
2013-02-08 17:40:00,70.1,62.5,29.98,WNW,287,9.0,16.0,77,0.00,RA,,0.02,WeatherDisplay:10.37,2013-02-08 22:40:00,
2013-02-08 17:50:00,69.6,63.2,29.98,WNW,293,9.0,14.0,80,0.00,RA,,0.02,WeatherDisplay:10.37,2013-02-08 22:50:00,
2013-02-08 18:00:00,69.2,63.1,29.98,WNW,290,8.0,15.0,81,0.00,RA,,0.02,WeatherDisplay:10.37,2013-02-08 23:00:00,
2013-02-08 18:10:00,68.9,63.2,29.98,WNW,295,9.0,14.0,82,0.00,RA,,0.02,WeatherDisplay:10.37,2013-02-08 23:10:00,
2013-02-08 18:20:00,68.6,63.2,29.99,WNW,286,9.0,14.0,83,0.00,RA,,0.02,WeatherDisplay:10.37,2013-02-08 23:20:00,
2013-02-08 18:30:00,68.4,63.0,29.99,WNW,294,6.0,12.0,83,0.00,RA,,0.02,WeatherDisplay:10.37,2013-02-08 23:30:00,
2013-02-08 18:40:00,68.3,63.3,29.99,WNW,303,8.0,13.0,84,0.00,RA,,0.02,WeatherDisplay:10.37,2013-02-08 23:40:00,
2013-02-08 18:50:00,68.2,63.2,29.99,WNW,298,5.0,13.0,84,0.00,RA,,0.02,WeatherDisplay:10.37,2013-02-08 23:50:00,
2013-02-08 19:00:00,68.1,63.1,29.99,NW,307,6.0,9.0,84,0.00,RA,,0.02,WeatherDisplay:10.37,2013-02-09 00:00:00,
2013-02-08 19:10:00,67.9,63.2,30.00,NW,312,7.0,12.0,85,0.00,RA,,0.02,WeatherDisplay:10.37,2013-02-09 00:10:00,
2013-02-08 19:20:00,67.7,63.4,30.00,WNW,301,8.0,12.0,86,0.00,RA,,0.02,WeatherDisplay:10.37,2013-02-09 00:20:00,
2013-02-08 19:30:00,67.6,63.3,30.00,WNW,303,5.0,9.0,86,0.00,RA,,0.02,WeatherDisplay:10.37,2013-02-09 00:30:00,
2013-02-08 19:40:00,67.4,63.7,30.00,NW,306,6.0,10.0,88,0.00,RA,,0.02,WeatherDisplay:10.37,2013-02-09 00:40:00,
2013-02-08 19:50:00,67.2,63.5,30.01,WNW,301,7.0,10.0,88,0.00,RA,,0.02,WeatherDisplay:10.37,2013-02-09 00:50:00,
2013-02-08 20:00:00,67.1,63.7,30.01,NW,317,3.0,10.0,89,0.00,RA,,0.02,WeatherDisplay:10.37,2013-02-09 01:00:00,
2013-02-08 20:10:00,67.0,63.9,30.02,NW,313,5.0,8.0,90,0.00,RA,,0.02,WeatherDisplay:10.37,2013-02-09 01:10:00,
2013-02-08 20:20:00,66.8,63.8,30.02,WNW,299,6.0,10.0,90,0.00,RA,,0.02,WeatherDisplay:10.37,2013-02-09 01:20:00,
2013-02-08 20:30:00,66.8,63.7,30.03,WNW,292,6.0,12.0,90,0.00,RA,,0.02,WeatherDisplay:10.37,2013-02-09 01:30:00,
2013-02-08 20:40:00,66.6,63.6,30.03,WNW,297,5.0,12.0,90,0.00,RA,,0.02,WeatherDisplay:10.37,2013-02-09 01:40:00,
2013-02-08 20:50:00,66.5,63.8,30.03,WNW,288,8.0,12.0,91,0.00,RA,,0.02,WeatherDisplay:10.37,2013-02-09 01:50:00,
2013-02-08 21:00:00,66.2,63.5,30.04,WNW,297,9.0,15.0,91,0.00,RA,,0.02,WeatherDisplay:10.37,2013-02-09 02:00:00,
2013-02-08 21:10:00,65.9,63.5,30.04,WNW,297,8.0,16.0,92,0.00,RA,,0.02,WeatherDisplay:10.37,2013-02-09 02:10:00,
2013-02-08 21:20:00,65.6,63.2,30.04,WNW,300,9.0,17.0,92,0.00,RA,,0.02,WeatherDisplay:10.37,2013-02-09 02:20:00,
2013-02-08 21:30:00,65.3,62.9,30.05,NW,305,10.0,17.0,92,0.00,RA,,0.02,WeatherDisplay:10.37,2013-02-09 02:30:00,
2013-02-08 21:50:00,64.9,62.2,30.05,WNW,297,7.0,13.0,91,0.00,RA,,0.02,WeatherDisplay:10.37,2013-02-09 02:50:00,
2013-02-08 22:00:00,64.9,62.5,30.05,WNW,302,7.0,18.0,92,0.00,RA,,0.02,WeatherDisplay:10.37,2013-02-09 03:00:00,
2013-02-08 22:10:00,64.8,62.1,30.05,NW,314,6.0,12.0,91,0.00,RA,,0.02,WeatherDisplay:10.37,2013-02-09 03:10:00,
2013-02-08 22:20:00,64.7,62.3,30.05,NNW,328,5.0,9.0,92,0.00,RA,,0.02,WeatherDisplay:10.37,2013-02-09 03:20:00,
2013-02-08 22:30:00,64.6,62.2,30.05,NNW,336,6.0,9.0,92,0.00,RA,,0.02,WeatherDisplay:10.37,2013-02-09 03:30:00,
2013-02-08 22:40:00,64.1,61.7,30.05,NNW,342,7.0,12.0,92,0.00,RA,,0.02,WeatherDisplay:10.37,2013-02-09 03:40:00,
2013-02-08 22:50:00,63.5,61.2,30.05,NNW,344,6.0,10.0,92,0.00,RA,,0.02,WeatherDisplay:10.37,2013-02-09 03:50:00,
2013-02-08 23:00:00,63.1,60.7,30.06,North,0,5.0,8.0,92,0.00,RA,,0.02,WeatherDisplay:10.37,2013-02-09 04:00:00,
2013-02-08 23:10:00,62.7,60.4,30.06,NNW,342,3.0,7.0,92,0.00,RA,,0.02,WeatherDisplay:10.37,2013-02-09 04:10:00,
2013-02-08 23:20:00,62.5,60.1,30.06,NNW,341,3.0,7.0,92,0.00,RA,,0.02,WeatherDisplay:10.37,2013-02-09 04:20:00,
2013-02-08 23:40:00,61.9,59.9,30.06,North,351,3.0,6.0,93,0.00,RA,,0.02,WeatherDisplay:10.37,2013-02-09 04:40:00,
2013-02-08 23:50:00,61.6,59.6,30.06,NNW,341,1.0,7.0,93,0.00,RA,,0.02,WeatherDisplay:10.37,2013-02-09 04:50:00,